Savoonga, AK

10:59 PM AKST on February 20, 2018 (GMT -0900)
Savoonga

Weather History for PASA - October, 2012

Change the Weather History Date:

Friday, October 26, 2012

  Actual Average Record
Temperature  
Mean Temperature 34 °F -  
Max Temperature 39 °F 30 °F 42 °F (2016)
Min Temperature 28 °F 25 °F 17 °F (2005)
Degree Days  
Heating Degree Days 32    
Moisture  
Dew Point 25 °F    
Average Humidity 75    
Maximum Humidity 93    
Minimum Humidity 33    
Precipitation  
Precipitation 0.00 in - - ()
Sea Level Pressure  
Sea Level Pressure 30.46 in    
Wind  
Wind Speed 14 mph (West)    
Max Wind Speed 24 mph    
Max Gust Speed 31 mph    
Visibility 10 miles    
Events      
Averages and records for this station are not official NWS values.
T = Trace of Precipitation, MM = Missing Value Source: NWS Daily Summary

Daily Weather History Graph

Daily Weather History Graph

Search for Another Location

Airport or City:

Trip Planner

Search our weather history database for the weather conditions in past years. The results will help you decide how hot, cold, wet, or windy it might be!

Date:

Astronomy

Oct. 26, 2012 Rise Set
Actual Time 10:46 AM AKDT 7:24 PM AKDT
Civil Twilight 9:55 AM AKDT 8:14 PM AKDT
Nautical Twilight 9:00 AM AKDT 9:09 PM AKDT
Astronomical Twilight 8:06 AM AKDT 10:03 PM AKDT
Moon 6:23 PM AKDT (10/26) 7:10 AM AKDT (10/26)
Length of Visible Light 10h 18m
Length of Day
8h 37m
Waxing Gibbous, 92% of the Moon is Illuminated
Oct 26
Waxing Gibbous
Oct 29
Full
Nov 6
Last Quarter
Nov 13
New
Nov 20
First Quarter

Hourly Weather History & Observations

Time (AKDT) Temp. Windchill Dew Point Humidity Pressure Visibility Wind Dir Wind Speed Gust Speed Precip Events Conditions
12:16 AM 39.2 °F 32.5 °F 14.0 °F 36% 30.53 in 10.0 mi WSW 10.4 mph - N/A   Clear
12:36 AM 35.6 °F 29.9 °F 15.8 °F 44% 30.54 in 10.0 mi WSW 6.9 mph - N/A   Clear
12:56 AM 35.6 °F 29.2 °F 15.8 °F 44% 30.52 in 10.0 mi WSW 8.1 mph - N/A   Clear
1:16 AM 37.4 °F 30.3 °F 14.0 °F 38% 30.52 in 10.0 mi WSW 10.4 mph - N/A   Clear
1:36 AM 37.4 °F 30.8 °F 14.0 °F 38% 30.52 in 10.0 mi WSW 9.2 mph - N/A   Clear
1:56 AM 39.2 °F 37.0 °F 12.2 °F 33% 30.53 in 10.0 mi East 3.5 mph - N/A   Clear
2:16 AM 37.4 °F - 12.2 °F 36% 30.52 in 10.0 mi Calm Calm - N/A   Clear
2:36 AM 39.2 °F 32.5 °F 14.0 °F 36% 30.51 in 10.0 mi SW 10.4 mph - N/A   Clear
2:56 AM 39.2 °F 32.5 °F 12.2 °F 33% 30.51 in 10.0 mi West 10.4 mph - N/A   Clear
3:16 AM 39.2 °F 32.0 °F 12.2 °F 33% 30.51 in 10.0 mi WSW 11.5 mph - N/A   Clear
3:36 AM 39.2 °F 32.0 °F 12.2 °F 33% 30.50 in 10.0 mi WSW 11.5 mph - N/A   Clear
3:56 AM 39.2 °F 31.2 °F 14.0 °F 36% 30.50 in 10.0 mi SW 13.8 mph - N/A   Clear
4:16 AM 39.2 °F 31.2 °F 12.2 °F 33% 30.50 in 10.0 mi SW 13.8 mph - N/A   Clear
4:36 AM 39.2 °F 31.6 °F 12.2 °F 33% 30.49 in 10.0 mi SW 12.7 mph - N/A   Clear
4:56 AM 39.2 °F 30.5 °F 12.2 °F 33% 30.49 in 10.0 mi SW 16.1 mph - N/A   Clear
5:56 AM 35.6 °F 26.6 °F 21.2 °F 56% 30.48 in 10.0 mi West 13.8 mph - N/A   Clear
6:16 AM 33.8 °F 22.8 °F 24.8 °F 70% 30.48 in 10.0 mi West 18.4 mph - N/A   Clear
6:36 AM 33.8 °F 22.8 °F 26.6 °F 75% 30.48 in 10.0 mi West 18.4 mph - N/A   Clear
6:56 AM 32.0 °F 21.6 °F 26.6 °F 80% 30.48 in 10.0 mi West 15.0 mph - N/A   Clear
7:16 AM 33.8 °F 22.2 °F 24.8 °F 70% 30.47 in 10.0 mi West 20.7 mph - N/A   Clear
7:36 AM 32.0 °F 19.8 °F 26.6 °F 80% 30.47 in 10.0 mi West 20.7 mph - N/A   Clear
7:56 AM 32.0 °F 18.9 °F 26.6 °F 80% 30.47 in 10.0 mi West 24.2 mph - N/A   Clear
8:16 AM 28.4 °F 15.1 °F 26.6 °F 93% 30.47 in 10.0 mi West 20.7 mph - N/A   Clear
8:36 AM 28.4 °F 14.4 °F 26.6 °F 93% 30.47 in 10.0 mi West 23.0 mph - N/A   Clear
8:56 AM 30.2 °F 16.8 °F 26.6 °F 86% 30.47 in 10.0 mi West 23.0 mph - N/A   Clear
9:16 AM 28.4 °F 15.4 °F 26.6 °F 93% 30.47 in 10.0 mi West 19.6 mph - N/A   Clear
9:36 AM 28.4 °F 14.4 °F 24.8 °F 86% 30.46 in 10.0 mi West 23.0 mph 31.1 mph N/A   Clear
9:56 AM 30.2 °F 16.5 °F 24.8 °F 80% 30.46 in 10.0 mi West 24.2 mph - N/A   Clear
10:16 AM 28.4 °F 14.4 °F 26.6 °F 93% 30.46 in 10.0 mi West 23.0 mph 27.6 mph N/A   Clear
10:36 AM 28.4 °F 14.4 °F 26.6 °F 93% 30.46 in 7.0 mi West 23.0 mph 28.8 mph N/A   Mostly Cloudy
10:56 AM 28.4 °F 15.1 °F 26.6 °F 93% 30.47 in 10.0 mi WSW 20.7 mph - N/A   Overcast
11:16 AM 30.2 °F 16.8 °F 26.6 °F 86% 30.47 in 8.0 mi WSW 23.0 mph - N/A   Overcast
11:36 AM 28.4 °F 14.4 °F 26.6 °F 93% 30.47 in 4.0 mi WSW 23.0 mph 27.6 mph N/A   Overcast
11:56 AM 30.2 °F 17.8 °F 26.6 °F 86% 30.47 in 10.0 mi WSW 19.6 mph - N/A   Overcast
12:16 PM 30.2 °F 16.8 °F 28.4 °F 93% 30.46 in 10.0 mi WSW 23.0 mph 28.8 mph N/A   Overcast
12:36 PM 32.0 °F 20.1 °F 28.4 °F 87% 30.46 in 10.0 mi WSW 19.6 mph - N/A   Overcast
12:56 PM 30.2 °F 18.1 °F 28.4 °F 93% 30.46 in 10.0 mi West 18.4 mph 21.9 mph N/A   Overcast
1:16 PM 32.0 °F 19.8 °F 28.4 °F 87% 30.47 in 10.0 mi WSW 20.7 mph - N/A   Overcast
1:36 PM 32.0 °F 21.6 °F 28.4 °F 87% 30.47 in 10.0 mi WSW 15.0 mph - N/A   Overcast
1:56 PM 30.2 °F 19.3 °F 28.4 °F 93% 30.47 in 10.0 mi WSW 15.0 mph - N/A   Overcast
2:16 PM 33.8 °F 24.3 °F 28.4 °F 81% 30.47 in 10.0 mi WSW 13.8 mph - N/A   Overcast
2:36 PM 32.0 °F 22.1 °F 28.4 °F 87% 30.47 in 10.0 mi WSW 13.8 mph - N/A   Overcast
2:56 PM 33.8 °F 23.5 °F 28.4 °F 81% 30.47 in 10.0 mi West 16.1 mph - N/A   Overcast
3:16 PM 33.8 °F 23.9 °F 28.4 °F 81% 30.46 in 10.0 mi West 15.0 mph 19.6 mph N/A   Overcast
3:36 PM 32.0 °F 20.5 °F 28.4 °F 87% 30.46 in 10.0 mi WSW 18.4 mph - N/A   Overcast
3:56 PM 33.8 °F 24.3 °F 28.4 °F 81% 30.45 in 10.0 mi West 13.8 mph - N/A   Overcast
4:16 PM 33.8 °F 23.9 °F 30.2 °F 87% 30.45 in 10.0 mi West 15.0 mph - N/A   Overcast
4:36 PM 33.8 °F 22.8 °F 30.2 °F 87% 30.44 in 10.0 mi West 18.4 mph - N/A   Overcast
4:56 PM 33.8 °F 23.2 °F 28.4 °F 81% 30.43 in 10.0 mi West 17.3 mph - N/A   Overcast
5:16 PM 33.8 °F 23.2 °F 28.4 °F 81% 30.43 in 10.0 mi West 17.3 mph - N/A   Overcast
5:36 PM 33.8 °F 23.2 °F 30.2 °F 87% 30.43 in 10.0 mi West 17.3 mph - N/A   Overcast
5:56 PM 33.8 °F 23.5 °F 28.4 °F 81% 30.43 in 10.0 mi West 16.1 mph - N/A   Overcast
6:16 PM 33.8 °F 23.2 °F 30.2 °F 87% 30.42 in 10.0 mi West 17.3 mph 20.7 mph N/A   Overcast
6:36 PM 33.8 °F 23.5 °F 28.4 °F 81% 30.42 in 9.0 mi West 16.1 mph - N/A   Overcast
6:56 PM 33.8 °F 24.8 °F 30.2 °F 87% 30.42 in 8.0 mi West 12.7 mph - N/A   Overcast
7:16 PM 33.8 °F 23.9 °F 30.2 °F 87% 30.41 in 9.0 mi West 15.0 mph - N/A   Overcast
7:36 PM 32.0 °F 22.1 °F 30.2 °F 93% 30.41 in 7.0 mi West 13.8 mph - N/A   Overcast
8:16 PM 33.8 °F 25.8 °F 30.2 °F 87% 30.41 in 10.0 mi West 10.4 mph - N/A   Overcast
8:36 PM 32.0 °F 23.6 °F 30.2 °F 93% 30.41 in 10.0 mi West 10.4 mph - N/A   Overcast
8:56 PM 33.8 °F 25.8 °F 30.2 °F 87% 30.40 in 9.0 mi West 10.4 mph - N/A   Overcast
9:16 PM 33.8 °F 25.8 °F 30.2 °F 87% 30.41 in 10.0 mi West 10.4 mph - N/A   Overcast
9:36 PM 32.0 °F 22.5 °F 30.2 °F 93% 30.40 in 9.0 mi West 12.7 mph - N/A   Overcast
9:56 PM 33.8 °F 25.3 °F 30.2 °F 87% 30.40 in 8.0 mi West 11.5 mph - N/A   Overcast
10:16 PM 32.0 °F 22.1 °F 30.2 °F 93% 30.40 in 10.0 mi West 13.8 mph - N/A   Overcast
10:36 PM 33.8 °F 24.8 °F 30.2 °F 87% 30.40 in 10.0 mi West 12.7 mph - N/A   Overcast
10:56 PM 33.8 °F 25.3 °F 30.2 °F 87% 30.40 in 10.0 mi West 11.5 mph - N/A   Overcast
11:16 PM 33.8 °F 25.3 °F 28.4 °F 81% 30.39 in 10.0 mi West 11.5 mph - N/A   Overcast
11:36 PM 33.8 °F 25.8 °F 30.2 °F 87% 30.39 in 10.0 mi West 10.4 mph - N/A   Overcast
11:56 PM 30.2 °F 22.6 °F 28.4 °F 93% 30.39 in 10.0 mi WSW 8.1 mph - N/A   Overcast